Location: Plymouth
(43.7570°N, 71.6890°W)
Time: 18:52:38
(UTC-04:00)

Amateur Radio Satellites - All Passes

Search period start: 19 April 2014 18:22
Search period end: 20 April 2014 18:22
Location: Plymouth, 43.7570°N, 71.6890°W

Satellite Date Start Highest point End Downlink Frequencies (MHz)
Time Altitude Azimuth
JAS-2 19 Apr 18:40:44 18:46:25 59° 72° (ENE) 18:51:39 435.800 - 435.900 CW/SSB, 435.910 FM
SO-67 19 Apr 18:44:20 18:47:30 33° 72° (ENE) 18:50:42 435.3500 MHz FM
AO-7 19 Apr 18:52:56 18:53:15 10° 276° (W) 18:53:35 29.400 - 29.500 MHz
Hamsat 19 Apr 18:58:15 19:01:55 29° 265° (W) 19:05:38 145.90 MHz
ISS 19 Apr 19:04:41 19:07:20 21° 4° (N) 19:09:59 145.800 FM
UOSAT-12 19 Apr 19:15:33 19:19:25 26° 318° (NW) 19:23:21 437.025 FM, 437.400 FM
HO-68 19 Apr 19:20:52 19:25:54 21° 54° (NE) 19:30:56 435.675 MHz FM
Saudisat 1A 19 Apr 19:21:18 19:25:36 47° 50° (NE) 19:29:50 436.775 MHz
STRAND 1 19 Apr 19:40:52 19:45:59 88° 105° (ESE) 19:51:05 ?
SO-67 19 Apr 20:18:44 20:20:47 15° 268° (W) 20:22:52 435.3500 MHz FM
JAS-2 19 Apr 20:27:53 20:31:52 19° 267° (W) 20:35:39 435.800 - 435.900 CW/SSB, 435.910 FM
Oscar 11 19 Apr 20:35:11 20:37:59 17° 64° (ENE) 20:40:48 145.825 FM, Beacon 2401.500 USB
ISS 19 Apr 20:41:26 20:44:40 43° 24° (NNE) 20:47:54 145.800 FM
Saudisat 1A 19 Apr 21:01:37 21:04:53 21° 248° (WSW) 21:08:08 436.775 MHz
HO-68 19 Apr 21:05:35 21:12:44 86° 253° (WSW) 21:19:56 435.675 MHz FM
STRAND 1 19 Apr 21:22:01 21:24:27 14° 302° (WNW) 21:26:53 ?
FUNcube-1 19 Apr 22:00:43 22:04:39 41° 71° (ENE) 22:08:35 145.950 - 145.970 MHz USB
SO-50 19 Apr 22:03:46 22:04:51 11° 28° (NNE) 22:05:55 436.795 FM
Oscar 11 19 Apr 22:09:39 22:13:49 49° 261° (W) 22:18:01 145.825 FM, Beacon 2401.500 USB
MaSat-1 19 Apr 22:15:58 22:18:32 31° 300° (WNW) 22:20:53 437.345 MHz
ISS 19 Apr 22:18:20 22:21:21 31° 222° (SW) 22:24:21 145.800 FM
HO-68 19 Apr 22:57:21 23:01:24 16° 272° (W) 23:05:30 435.675 MHz FM
PCSat 19 Apr 23:27:43 23:31:04 17° 105° (ESE) 23:34:26 145.825 MHz
FUNcube-1 19 Apr 23:38:27 23:41:17 18° 268° (W) 23:44:06 145.950 - 145.970 MHz USB
SO-50 19 Apr 23:42:07 23:46:35 45° 49° (NE) 23:51:06 436.795 FM
Sapphire 20 Apr 00:23:52 00:29:02 47° 114° (ESE) 00:34:13 437.095 MHz 1200 baud AX-25 AFSK
UOSAT-12 20 Apr 00:24:08 00:26:30 14° 31° (NNE) 00:28:51 437.025 FM, 437.400 FM
Oscar 16 20 Apr 00:56:19 00:56:26 10° 87° (E) 00:56:33 437.025 USB, Beacon 2401.1428
OPAL 20 Apr 01:04:04 01:07:03 16° 56° (ENE) 01:10:04 ?
PCSat 20 Apr 01:08:27 01:13:51 73° 302° (WNW) 01:19:18 145.825 MHz
SO-50 20 Apr 01:23:11 01:26:56 24° 247° (WSW) 01:30:42 436.795 FM
Uribyol 2 20 Apr 01:30:50 01:32:30 11° 88° (E) 01:34:09 436.500 FM
Oscar 10/S400 20 Apr 01:50:44 02:06:39 22° 128° (SE) 02:41:42 145.825 - 145.975 CW/USB, Beacon 145.810 USB
UOSAT-12 20 Apr 02:02:55 02:07:37 61° 52° (NE) 02:12:16 437.025 FM, 437.400 FM
Sapphire 20 Apr 02:07:56 02:12:39 30° 313° (NW) 02:17:25 437.095 MHz 1200 baud AX-25 AFSK
AO-27 20 Apr 02:09:08 02:13:28 26° 95° (E) 02:17:46 436.795 MHz FM
ITAMSAT 1 20 Apr 02:19:31 02:24:08 32° 96° (E) 02:28:44 435.822 SSB
AO-Echo 20 Apr 02:22:16 02:26:16 26° 94° (E) 02:30:11 ?
Oscar 19 20 Apr 02:22:59 02:28:11 65° 102° (ESE) 02:33:20 437.125 CW, 437.150 USB
KITSAT 1 20 Apr 02:25:11 02:32:49 47° 112° (ESE) 02:40:27 435.175 FM
Oscar 16 20 Apr 02:31:20 02:36:34 83° 104° (ESE) 02:41:47 437.025 USB, Beacon 2401.1428
OPAL 20 Apr 02:40:17 02:45:18 77° 255° (WSW) 02:50:26 ?
TMSAT-1 20 Apr 02:52:49 02:55:54 16° 89° (E) 02:58:58 436.925 FM
PCSat 20 Apr 02:55:01 02:58:16 16° 324° (NW) 03:01:32 145.825 MHz
Uribyol 2 20 Apr 03:07:28 03:12:40 89° 285° (WNW) 03:17:52 436.500 FM
Gurwin Techsat 1B 20 Apr 03:43:10 03:48:27 61° 101° (E) 03:53:41 435.225 FM
UOSAT-12 20 Apr 03:44:10 03:47:19 18° 250° (WSW) 03:50:26 437.025 FM, 437.400 FM
AO-27 20 Apr 03:48:16 03:53:06 41° 292° (WNW) 03:57:55 436.795 MHz FM
ITAMSAT 1 20 Apr 03:59:00 04:03:37 34° 293° (WNW) 04:08:14 435.822 SSB
AO-Echo 20 Apr 04:00:47 04:05:08 35° 292° (WNW) 04:09:23 ?
Oscar 19 20 Apr 04:03:32 04:07:00 18° 299° (WNW) 04:10:29 437.125 CW, 437.150 USB
Oscar 16 20 Apr 04:12:26 04:15:15 15° 302° (WNW) 04:18:03 437.025 USB, Beacon 2401.1428
Uosat F 20 Apr 04:19:22 04:23:55 34° 97° (E) 04:28:26 435.120 FM
KITSAT 1 20 Apr 04:20:28 04:28:14 47° 313° (NW) 04:36:03 435.175 FM
TMSAT-1 20 Apr 04:31:04 04:36:21 71° 287° (WNW) 04:41:37 436.925 FM
Uribyol 2 20 Apr 04:49:01 04:51:23 13° 303° (WNW) 04:53:46 436.500 FM
AO-7 20 Apr 04:50:33 04:58:26 45° 100° (E) 05:06:17 29.400 - 29.500 MHz
AO-40 20 Apr 04:51:17 10:02:31 34° 180° (S) 17:09:22 Beacon 2401.320
JAS-1B 20 Apr 04:52:25 04:58:08 80° 104° (ESE) 05:04:01 435.800 - 435.900 CW/SSB
STRAND 1 20 Apr 05:20:54 05:24:34 20° 62° (ENE) 05:28:13 ?
Gurwin Techsat 1B 20 Apr 05:24:12 05:27:57 20° 299° (WNW) 05:31:41 435.225 FM
RS-15 20 Apr 05:35:57 05:45:05 30° 104° (ESE) 05:53:57 29.354 - 29.394 USB, Beacon 29.352 USB
Uosat F 20 Apr 05:58:17 06:02:37 30° 294° (WNW) 06:06:56 435.120 FM
TMSAT-1 20 Apr 06:14:07 06:15:19 11° 305° (NW) 06:16:32 436.925 FM
KITSAT 1 20 Apr 06:20:40 06:25:58 18° 339° (NNW) 06:31:16 435.175 FM
MaSat-1 20 Apr 06:37:10 06:40:02 51° 62° (ENE) 06:43:23 437.345 MHz
Hamsat 20 Apr 06:42:10 06:46:20 44° 98° (E) 06:50:30 145.90 MHz
AO-7 20 Apr 06:43:27 06:51:12 46° 299° (WNW) 06:58:58 29.400 - 29.500 MHz
JAS-1B 20 Apr 06:44:57 06:48:08 15° 304° (NW) 06:51:20 435.800 - 435.900 CW/SSB
STRAND 1 20 Apr 06:58:18 07:03:20 57° 259° (W) 07:08:23 ?
Sapphire 20 Apr 07:28:45 07:30:57 12° 32° (NNE) 07:33:09 437.095 MHz 1200 baud AX-25 AFSK
JAS-2 20 Apr 07:32:06 07:37:16 45° 99° (E) 07:42:55 435.800 - 435.900 CW/SSB, 435.910 FM
SO-67 20 Apr 07:40:30 07:43:44 34° 97° (E) 07:46:56 435.3500 MHz FM
RS-15 20 Apr 07:45:00 07:56:19 80° 306° (NW) 08:07:21 29.354 - 29.394 USB, Beacon 29.352 USB
PCSat 20 Apr 08:12:26 08:16:42 23° 43° (NE) 08:20:56 145.825 MHz
Hamsat 20 Apr 08:18:56 08:22:01 19° 295° (WNW) 08:25:06 145.90 MHz
KITSAT 1 20 Apr 08:20:51 08:25:18 15° 10° (N) 08:29:44 435.175 FM
HO-68 20 Apr 08:33:43 08:37:56 16° 88° (E) 08:42:08 435.675 MHz FM
AO-7 20 Apr 08:39:24 08:41:54 12° 322° (NW) 08:44:26 29.400 - 29.500 MHz
Sapphire 20 Apr 09:10:24 09:15:42 51° 54° (NE) 09:20:58 437.095 MHz 1200 baud AX-25 AFSK
SO-67 20 Apr 09:14:30 09:16:37 15° 294° (WNW) 09:18:44 435.3500 MHz FM
JAS-2 20 Apr 09:17:49 09:22:13 27° 295° (WNW) 09:26:56 435.800 - 435.900 CW/SSB, 435.910 FM
PCSat 20 Apr 09:55:14 10:00:38 69° 243° (WSW) 10:06:00 145.825 MHz
Oscar 11 20 Apr 09:56:17 09:59:59 27° 95° (E) 10:03:41 145.825 FM, Beacon 2401.500 USB
RS-15 20 Apr 10:01:04 10:10:38 32° 334° (NNW) 10:20:08 29.354 - 29.394 USB, Beacon 29.352 USB
KITSAT 1 20 Apr 10:16:35 10:23:45 33° 39° (NE) 10:30:51 435.175 FM
HO-68 20 Apr 10:19:21 10:26:35 87° 107° (ESE) 10:33:47 435.675 MHz FM
Sapphire 20 Apr 10:54:28 10:58:48 25° 252° (WSW) 11:03:06 437.095 MHz 1200 baud AX-25 AFSK
Saudisat 1A 20 Apr 11:08:08 11:12:35 75° 122° (ESE) 11:17:03 436.775 MHz
FUNcube-1 20 Apr 11:24:27 11:28:44 77° 102° (ESE) 11:33:04 145.950 - 145.970 MHz USB
Oscar 11 20 Apr 11:32:22 11:36:10 30° 292° (WNW) 11:39:57 145.825 FM, Beacon 2401.500 USB
Oscar 19 20 Apr 12:04:46 12:07:41 15° 59° (ENE) 12:10:37 437.125 CW, 437.150 USB
HO-68 20 Apr 12:08:23 12:13:25 21° 306° (NW) 12:18:27 435.675 MHz FM
KITSAT 1 20 Apr 12:11:48 12:19:54 75° 242° (WSW) 12:27:55 435.175 FM
Oscar 16 20 Apr 12:12:27 12:16:00 19° 61° (ENE) 12:19:34 437.025 USB, Beacon 2401.1428
RS-15 20 Apr 12:18:58 12:27:35 25° 10° (N) 12:36:13 29.354 - 29.394 USB, Beacon 29.352 USB
Uribyol 2 20 Apr 12:49:01 12:52:54 22° 62° (ENE) 12:56:47 436.500 FM
Saudisat 1A 20 Apr 12:49:33 12:52:42 18° 322° (NW) 12:55:51 436.775 MHz
FUNcube-1 20 Apr 13:03:12 13:04:35 11° 299° (WNW) 13:05:57 145.950 - 145.970 MHz USB
AO-27 20 Apr 13:28:26 13:33:22 46° 69° (ENE) 13:38:18 436.795 MHz FM
Gurwin Techsat 1B 20 Apr 13:28:29 13:31:39 16° 59° (ENE) 13:34:49 435.225 FM
AO-Echo 20 Apr 13:35:56 13:40:50 42° 69° (ENE) 13:45:37 ?
ITAMSAT 1 20 Apr 13:38:44 13:43:47 56° 71° (ENE) 13:48:51 435.822 SSB
Oscar 19 20 Apr 13:41:14 13:46:23 78° 257° (WSW) 13:51:35 437.125 CW, 437.150 USB
Oscar 16 20 Apr 13:49:48 13:54:53 61° 259° (W) 14:00:01 437.025 USB, Beacon 2401.1428
JAS-1B 20 Apr 13:51:31 13:55:36 16° 56° (ENE) 13:59:23 435.800 - 435.900 CW/SSB
AO-7 20 Apr 14:02:45 14:07:35 17° 45° (NE) 14:12:26 29.400 - 29.500 MHz
KITSAT 1 20 Apr 14:09:48 14:13:55 15° 261° (W) 14:18:01 435.175 FM
TMSAT-1 20 Apr 14:14:26 14:18:54 28° 65° (ENE) 14:23:22 436.925 FM
Uribyol 2 20 Apr 14:26:59 14:32:01 52° 260° (W) 14:37:04 436.500 FM
RS-15 20 Apr 14:32:51 14:43:25 50° 42° (NE) 14:54:07 29.354 - 29.394 USB, Beacon 29.352 USB
OPAL 20 Apr 14:49:21 14:53:39 25° 96° (E) 14:57:55 ?
ISS 20 Apr 15:01:20 15:04:30 41° 141° (SE) 15:07:41 145.800 FM
Gurwin Techsat 1B 20 Apr 15:05:40 15:10:58 77° 257° (WSW) 15:16:19 435.225 FM
AO-27 20 Apr 15:08:59 15:13:05 24° 266° (W) 15:17:13 436.795 MHz FM
AO-Echo 20 Apr 15:15:24 15:19:43 26° 266° (W) 15:23:58 ?
ITAMSAT 1 20 Apr 15:19:58 15:23:38 19° 268° (W) 15:27:18 435.822 SSB
Uosat F 20 Apr 15:33:48 15:38:41 55° 71° (ENE) 15:43:36 435.120 FM
JAS-1B 20 Apr 15:37:29 15:45:30 79° 73° (ENE) 15:52:10 435.800 - 435.900 CW/SSB
SO-50 20 Apr 15:38:33 15:43:02 82° 123° (ESE) 15:47:34 436.795 FM
Oscar 10/S400 20 Apr 15:40:06 16:01:20 11° 276° (W) 16:25:42 145.825 - 145.975 CW/USB, Beacon 145.810 USB
AO-7 20 Apr 15:50:43 15:58:52 67° 66° (ENE) 16:07:04 29.400 - 29.500 MHz
TMSAT-1 20 Apr 15:53:41 15:58:39 40° 262° (W) 16:03:38 436.925 FM
UOSAT-12 20 Apr 16:18:11 16:20:09 13° 108° (ESE) 16:22:08 437.025 FM, 437.400 FM
OPAL 20 Apr 16:27:45 16:32:41 44° 293° (WNW) 16:37:37 ?
ISS 20 Apr 16:38:09 16:41:17 36° 339° (NNW) 16:44:26 145.800 FM
RS-15 20 Apr 16:45:27 16:56:00 57° 246° (WSW) 17:06:51 29.354 - 29.394 USB, Beacon 29.352 USB
Uosat F 20 Apr 17:14:21 17:17:49 19° 268° (W) 17:21:18 435.120 FM
SO-50 20 Apr 17:21:10 17:24:11 17° 323° (NW) 17:27:15 436.795 FM
JAS-1B 20 Apr 17:31:05 17:36:32 20° 268° (W) 17:41:27 435.800 - 435.900 CW/SSB
Hamsat 20 Apr 17:37:04 17:40:55 36° 70° (ENE) 17:44:50 145.90 MHz
AO-7 20 Apr 17:45:19 17:52:13 29° 266° (W) 17:59:10 29.400 - 29.500 MHz
JAS-2 20 Apr 17:47:32 17:51:42 22° 63° (ENE) 17:55:40 435.800 - 435.900 CW/SSB, 435.910 FM
UOSAT-12 20 Apr 17:55:03 17:59:37 80° 305° (NW) 18:04:18 437.025 FM, 437.400 FM
Saudisat 1A 20 Apr 17:55:25 17:58:05 15° 35° (NE) 18:00:43 436.775 MHz
ISS 20 Apr 18:16:04 18:18:41 21° 359° (N) 18:21:19 145.800 FM
SO-67 20 Apr 18:16:33 18:18:44 16° 67° (ENE) 18:20:55 435.3500 MHz FM
